| time (UTC) | temp F | wind direction | speed MPH | gust MPH | rain 1hr in | rain 24hr in | rain mn in | humidity % | barometer mb |
| 20260507051712 | 77 | 46 | 3.0 | 4.0 | 0.00 | 0.00 | 0.00 | 61 | 1013.0 |
| 20260507050711 | 78 | 46 | 3.0 | 4.0 | 0.00 | 0.00 | 0.00 | 61 | 1013.0 |
| 20260507045711 | 79 | 46 | 3.0 | 4.0 | 0.00 | 0.00 | 0.00 | 61 | 1013.0 |
| 20260507044710 | 80 | 46 | 3.0 | 4.0 | 0.00 | 0.00 | 0.00 | 61 | 1013.0 |
| 20260507043710 | 81 | 46 | 3.0 | 4.0 | 0.00 | 0.00 | 0.00 | 61 | 1013.0 |
| 20260507042709 | 82 | 44 | 3.0 | 5.0 | 0.00 | 0.00 | 0.00 | 61 | 1013.0 |
| 20260507041708 | 76 | 44 | 3.0 | 5.0 | 0.00 | 0.00 | 0.00 | 40 | 1013.0 |
| 20260507040707 | 77 | 44 | 3.0 | 5.0 | 0.00 | 0.00 | 0.00 | 40 | 1013.0 |
| 20260507035707 | 78 | 44 | 3.0 | 5.0 | 0.00 | 0.00 | 0.00 | 40 | 1013.0 |
| 20260507034706 | 79 | 44 | 3.0 | 5.0 | 0.00 | 0.00 | 0.00 | 40 | 1013.0 |
| 20260507033705 | 80 | 44 | 3.0 | 5.0 | 0.00 | 0.00 | 0.00 | 40 | 1013.0 |
| 20260507032705 | 81 | 40 | 3.0 | 5.0 | 0.00 | 0.00 | 0.00 | 40 | 1012.0 |
| 20260507031704 | 81 | 40 | 3.0 | 5.0 | 0.00 | 0.00 | 0.00 | 40 | 1012.0 |
| 20260507030704 | 82 | 40 | 3.0 | 5.0 | 0.00 | 0.00 | 0.00 | 40 | 1012.0 |
| 20260507025703 | 82 | 40 | 3.0 | 5.0 | 0.00 | 0.00 | 0.00 | 40 | 1012.0 |
| 20260507024702 | 83 | 40 | 3.0 | 5.0 | 0.00 | 0.00 | 0.00 | 40 | 1012.0 |
| 20260507023702 | 84 | 40 | 3.0 | 5.0 | 0.00 | 0.00 | 0.00 | 40 | 1012.0 |
| 20260507022701 | 85 | 42 | 4.0 | 6.0 | 0.00 | 0.00 | 0.00 | 40 | 1011.0 |
| 20260507021701 | 86 | 42 | 4.0 | 6.0 | 0.00 | 0.00 | 0.00 | 40 | 1011.0 |
| 20260507020700 | 86 | 42 | 4.0 | 6.0 | 0.00 | 0.00 | 0.00 | 40 | 1011.0 |
| 20260507015700 | 87 | 42 | 4.0 | 6.0 | 0.00 | 0.00 | 0.00 | 40 | 1011.0 |
| 20260507014659 | 87 | 42 | 4.0 | 6.0 | 0.00 | 0.00 | 0.00 | 40 | 1011.0 |
| 20260507013658 | 88 | 42 | 4.0 | 6.0 | 0.00 | 0.00 | 0.00 | 40 | 1011.0 |
| 20260507012658 | 89 | 49 | 4.0 | 7.0 | 0.00 | 0.00 | 0.00 | 40 | 1010.0 |
| 20260507011657 | 90 | 49 | 4.0 | 7.0 | 0.01 | 0.00 | 0.00 | 40 | 1010.0 |
| 20260507010657 | 91 | 49 | 4.0 | 7.0 | 0.00 | 0.00 | 0.00 | 40 | 1010.0 |
| 20260507005656 | 92 | 70 | 9.0 | 0.0 | 0.00 | 0.00 | 0.00 | 40 | 1010.0 |
| 20260507004656 | 92 | 70 | 9.0 | 0.0 | 0.00 | 0.00 | 0.00 | 40 | 1010.0 |
| 20260507003655 | 92 | 70 | 9.0 | 0.0 | 0.00 | 0.00 | 0.00 | 40 | 1010.0 |
| 20260507002654 | 92 | 70 | 9.0 | 0.0 | 0.00 | 0.00 | 0.00 | 40 | 1008.0 |
| 20260507001654 | 92 | 70 | 9.0 | 0.0 | 0.00 | 0.00 | 0.00 | 40 | 1008.0 |
| 20260507000653 | 92 | 70 | 9.0 | 0.0 | 0.00 | 0.00 | 0.00 | 40 | 1008.0 |
| 20260506235653 | 96 | 70 | 11.0 | 0.0 | 0.00 | 0.00 | 0.00 | 36 | 1008.0 |
| 20260506234652 | 96 | 70 | 11.0 | 0.0 | 0.00 | 0.00 | 0.00 | 36 | 1008.0 |
| 20260506233651 | 96 | 70 | 11.0 | 0.0 | 0.00 | 0.00 | 0.00 | 36 | 1008.0 |
| 20260506232651 | 96 | 70 | 11.0 | 0.0 | 0.00 | 0.00 | 0.00 | 36 | 1007.0 |
| 20260506231650 | 96 | 70 | 11.0 | 0.0 | 0.00 | 0.00 | 0.00 | 36 | 1007.0 |
| 20260506230649 | 99 | 41 | 7.0 | 8.0 | 0.00 | 0.00 | 0.00 | 30 | 1007.0 |
| 20260506225649 | 100 | 60 | 13.0 | 0.0 | 0.00 | 0.00 | 0.00 | 30 | 1007.0 |
| 20260506224648 | 100 | 60 | 13.0 | 0.0 | 0.00 | 0.00 | 0.00 | 30 | 1007.0 |
| 20260506223648 | 100 | 60 | 13.0 | 0.0 | 0.00 | 0.00 | 0.00 | 30 | 1007.0 |
| 20260506222647 | 100 | 60 | 13.0 | 0.0 | 0.00 | 0.00 | 0.00 | 30 | 1006.0 |
| 20260506221646 | 100 | 60 | 13.0 | 0.0 | 0.00 | 0.00 | 0.00 | 30 | 1006.0 |
| 20260506220646 | 100 | 60 | 13.0 | 0.0 | 0.00 | 0.00 | 0.00 | 30 | 1006.0 |
| 20260506215645 | 103 | 60 | 11.0 | 0.0 | 0.00 | 0.00 | 0.00 | 25 | 1006.0 |
| 20260506214645 | 103 | 60 | 11.0 | 0.0 | 0.00 | 0.00 | 0.00 | 25 | 1006.0 |
| 20260506213644 | 103 | 60 | 11.0 | 0.0 | 0.00 | 0.00 | 0.00 | 25 | 1006.0 |
| 20260506212643 | 103 | 60 | 11.0 | 0.0 | 0.00 | 0.00 | 0.00 | 25 | 1006.0 |
| 20260506211643 | 103 | 60 | 11.0 | 0.0 | 0.00 | 0.00 | 0.00 | 25 | 1006.0 |
| 20260506210031 | 103 | 50 | 4.0 | 0.0 | 0.00 | 0.00 | 0.00 | 25 | 1006.0 |
| 20260506205031 | 103 | 50 | 4.0 | 0.0 | 0.00 | 0.00 | 0.00 | 25 | 1006.0 |
| 20260506204030 | 103 | 50 | 4.0 | 0.0 | 0.00 | 0.00 | 0.00 | 25 | 1006.0 |
| 20260506203029 | 103 | 50 | 4.0 | 0.0 | 0.00 | 0.00 | 0.00 | 25 | 1006.0 |
| 20260506202020 | 100 | 11 | 4.0 | 7.0 | 0.00 | 0.00 | 0.00 | 27 | 1007.0 |
| 20260506201019 | 100 | 11 | 4.0 | 7.0 | 0.00 | 0.00 | 0.00 | 27 | 1007.0 |
| 20260506200018 | 101 | 30 | 4.0 | 0.0 | 0.00 | 0.00 | 0.00 | 27 | 1007.0 |
| 20260506195018 | 101 | 30 | 4.0 | 0.0 | 0.00 | 0.00 | 0.00 | 27 | 1007.0 |
| 20260506194017 | 101 | 30 | 4.0 | 0.0 | 0.00 | 0.00 | 0.00 | 27 | 1007.0 |
| 20260506193017 | 101 | 30 | 4.0 | 0.0 | 0.00 | 0.00 | 0.00 | 27 | 1007.0 |
| 20260506192016 | 101 | 30 | 4.0 | 0.0 | 0.00 | 0.00 | 0.00 | 27 | 1009.0 |
| 20260506191016 | 98 | 50 | 4.0 | 0.0 | 0.00 | 0.00 | 0.00 | 34 | 1009.0 |
| 20260506190015 | 98 | 50 | 4.0 | 0.0 | 0.00 | 0.00 | 0.00 | 34 | 1009.0 |
| 20260506185015 | 98 | 50 | 4.0 | 0.0 | 0.00 | 0.00 | 0.00 | 34 | 1009.0 |
| 20260506184014 | 98 | 50 | 4.0 | 0.0 | 0.00 | 0.00 | 0.00 | 34 | 1009.0 |
| 20260506183014 | 98 | 50 | 4.0 | 0.0 | 0.00 | 0.00 | 0.00 | 34 | 1009.0 |
| 20260506182013 | 98 | 50 | 4.0 | 0.0 | 0.00 | 0.00 | 0.00 | 34 | 1010.0 |
| 20260506181012 | 98 | 50 | 4.0 | 0.0 | 0.00 | 0.00 | 0.00 | 34 | 1010.0 |
| 20260506180011 | 94 | 20 | 4.0 | 0.0 | 0.00 | 0.00 | 0.00 | 43 | 1010.0 |
| 20260506175010 | 94 | 20 | 4.0 | 0.0 | 0.00 | 0.00 | 0.00 | 43 | 1010.0 |
| 20260506172923 | 94 | 20 | 4.0 | 0.0 | 0.00 | 0.00 | 0.00 | 43 | 1012.0 |
| 20260506171922 | 94 | 20 | 4.0 | 0.0 | 0.00 | 0.00 | 0.00 | 43 | 1012.0 |
| 20260506170921 | 95 | 95 | 1.0 | 2.0 | 0.00 | 0.00 | 0.00 | 47 | 1012.0 |
| 20260506165921 | 91 | 0 | 0.0 | 0.0 | 0.00 | 0.00 | 0.00 | 49 | 1012.0 |
| 20260506164920 | 91 | 0 | 0.0 | 0.0 | 0.00 | 0.00 | 0.00 | 49 | 1012.0 |
| 20260506163920 | 91 | 0 | 0.0 | 0.0 | 0.00 | 0.00 | 0.00 | 49 | 1013.0 |
| 20260506162919 | 91 | 0 | 0.0 | 0.0 | 0.00 | 0.00 | 0.00 | 49 | 1013.0 |
| 20260506161934 | 91 | 0 | 0.0 | 0.0 | 0.00 | 0.00 | 0.00 | 49 | 1013.0 |
| 20260506160934 | 87 | 0 | 0.0 | 0.0 | 0.00 | 0.00 | 0.00 | 55 | 1013.0 |
| 20260506155933 | 87 | 0 | 0.0 | 0.0 | 0.00 | 0.00 | 0.00 | 55 | 1013.0 |
| 20260506154932 | 87 | 0 | 0.0 | 0.0 | 0.00 | 0.00 | 0.00 | 55 | 1013.0 |
| 20260506153932 | 87 | 0 | 0.0 | 0.0 | 0.00 | 0.00 | 0.00 | 55 | 1013.0 |
| 20260506152931 | 87 | 0 | 0.0 | 0.0 | 0.00 | 0.00 | 0.00 | 55 | 1014.0 |
| 20260506151930 | 87 | 0 | 0.0 | 0.0 | 0.00 | 0.00 | 0.00 | 55 | 1014.0 |
| 20260506150930 | 83 | 0 | 0.0 | 0.0 | 0.00 | 0.00 | 0.00 | 74 | 1014.0 |
| 20260506145929 | 83 | 0 | 0.0 | 0.0 | 0.00 | 0.00 | 0.00 | 74 | 1014.0 |
| 20260506144929 | 83 | 0 | 0.0 | 0.0 | 0.00 | 0.00 | 0.00 | 74 | 1014.0 |
| 20260506143928 | 83 | 0 | 0.0 | 0.0 | 0.00 | 0.00 | 0.00 | 74 | 1014.0 |
| 20260506142928 | 83 | 0 | 0.0 | 0.0 | 0.00 | 0.00 | 0.00 | 74 | 1014.0 |
| 20260506141927 | 83 | 0 | 0.0 | 0.0 | 0.00 | 0.00 | 0.00 | 74 | 1014.0 |
| 20260506140927 | 80 | 0 | 0.0 | 0.0 | 0.00 | 0.00 | 0.00 | 78 | 1014.0 |
| 20260506135925 | 80 | 0 | 0.0 | 0.0 | 0.00 | 0.00 | 0.00 | 78 | 1014.0 |
| 20260506134924 | 80 | 0 | 0.0 | 0.0 | 0.00 | 0.00 | 0.00 | 78 | 1014.0 |
| 20260506133924 | 80 | 0 | 0.0 | 0.0 | 0.00 | 0.00 | 0.00 | 78 | 1014.0 |
| 20260506132923 | 80 | 0 | 0.0 | 0.0 | 0.00 | 0.00 | 0.00 | 78 | 1014.0 |
| 20260506131922 | 80 | 0 | 0.0 | 0.0 | 0.00 | 0.00 | 0.00 | 78 | 1014.0 |
| 20260506130921 | 80 | 0 | 0.0 | 0.0 | 0.00 | 0.00 | 0.00 | 78 | 1014.0 |
| 20260506125921 | 76 | 0 | 0.0 | 0.0 | 0.00 | 0.00 | 0.00 | 88 | 1014.0 |
| 20260506124920 | 76 | 0 | 0.0 | 0.0 | 0.00 | 0.00 | 0.00 | 88 | 1014.0 |
| 20260506123919 | 76 | 0 | 0.0 | 0.0 | 0.00 | 0.00 | 0.00 | 88 | 1014.0 |
| 20260506122919 | 76 | 0 | 0.0 | 0.0 | 0.00 | 0.00 | 0.00 | 88 | 1013.0 |
| 20260506121918 | 76 | 0 | 0.0 | 0.0 | 0.00 | 0.00 | 0.00 | 88 | 1013.0 |
| 20260506120918 | 76 | 0 | 0.0 | 0.0 | 0.00 | 0.00 | 0.00 | 88 | 1013.0 |
| 20260506115917 | 77 | 165 | 0.0 | 1.0 | 0.00 | 0.00 | 0.00 | 89 | 1013.0 |
| 20260506114916 | 70 | 165 | 0.0 | 1.0 | 0.00 | 0.00 | 0.00 | 89 | 1013.0 |
| 20260506113916 | 70 | 165 | 0.0 | 1.0 | 0.00 | 0.00 | 0.00 | 89 | 1013.0 |
| 20260506112915 | 71 | 84 | 1.0 | 1.0 | 0.00 | 0.00 | 0.00 | 89 | 1013.0 |
| 20260506111915 | 72 | 84 | 1.0 | 1.0 | 0.00 | 0.00 | 0.00 | 89 | 1013.0 |
| 20260506110914 | 73 | 84 | 1.0 | 1.0 | 0.00 | 0.00 | 0.00 | 89 | 1013.0 |
| 20260506105913 | 74 | 84 | 1.0 | 1.0 | 0.00 | 0.00 | 0.00 | 89 | 1013.0 |
| 20260506104913 | 75 | 84 | 1.0 | 1.0 | 0.00 | 0.00 | 0.00 | 89 | 1013.0 |
| 20260506103912 | 76 | 84 | 1.0 | 1.0 | 0.00 | 0.00 | 0.00 | 89 | 1013.0 |
| 20260506102912 | 71 | 52 | 1.0 | 1.0 | 0.00 | 0.00 | 0.00 | 88 | 1013.0 |
| 20260506101911 | 72 | 52 | 1.0 | 1.0 | 0.00 | 0.00 | 0.00 | 88 | 1013.0 |
| 20260506100910 | 73 | 52 | 1.0 | 1.0 | 0.00 | 0.00 | 0.00 | 88 | 1013.0 |
| 20260506095910 | 74 | 52 | 1.0 | 1.0 | 0.00 | 0.00 | 0.00 | 88 | 1013.0 |
| 20260506094909 | 75 | 52 | 1.0 | 1.0 | 0.00 | 0.00 | 0.00 | 88 | 1013.0 |
| 20260506093909 | 71 | 52 | 1.0 | 1.0 | 0.00 | 0.00 | 0.00 | 86 | 1013.0 |
| 20260506092908 | 72 | 63 | 2.0 | 2.0 | 0.00 | 0.00 | 0.00 | 86 | 1013.0 |
| 20260506091907 | 73 | 63 | 2.0 | 2.0 | 0.00 | 0.00 | 0.00 | 86 | 1013.0 |
| 20260506090907 | 74 | 63 | 2.0 | 2.0 | 0.00 | 0.00 | 0.00 | 86 | 1013.0 |
| 20260506085906 | 75 | 63 | 2.0 | 2.0 | 0.00 | 0.00 | 0.00 | 86 | 1013.0 |
| 20260506084906 | 76 | 63 | 2.0 | 2.0 | 0.00 | 0.00 | 0.00 | 86 | 1013.0 |
| 20260506083905 | 77 | 63 | 2.0 | 2.0 | 0.00 | 0.00 | 0.00 | 86 | 1013.0 |
| 20260506082904 | 78 | 49 | 2.0 | 3.0 | 0.00 | 0.00 | 0.00 | 86 | 1013.0 |
| 20260506081904 | 72 | 49 | 2.0 | 3.0 | 0.00 | 0.00 | 0.00 | 84 | 1013.0 |
| 20260506080903 | 73 | 49 | 2.0 | 3.0 | 0.00 | 0.00 | 0.00 | 84 | 1013.0 |
| 20260506072844 | 77 | 38 | 3.0 | 4.0 | 0.00 | 0.00 | 0.00 | 84 | 1013.0 |
| 20260506071843 | 78 | 38 | 3.0 | 4.0 | 0.00 | 0.00 | 0.00 | 84 | 1013.0 |
| 20260506070843 | 72 | 38 | 3.0 | 4.0 | 0.00 | 0.00 | 0.00 | 83 | 1013.0 |
| 20260506061839 | 77 | 38 | 3.0 | 4.0 | 0.00 | 0.00 | 0.00 | 83 | 1013.0 |
| 20260506060839 | 73 | 38 | 3.0 | 4.0 | 0.00 | 0.00 | 0.00 | 82 | 1013.0 |